Temp
6 6 5 4 4 4 3 3 2 2 2 2 2 1 -0 -1 -1 -1 -2 -1 -1 -2
5 6 4 3 3 3 2 2 2 1 1 1 0 -0 -1 -1 -1 -0 -1 -1 -2 -2
5 4 3 3 2 2 1 1 1 1 1 1 0 -0 -0 -0 -1 -2 -1 -1 -2 -2
4 3 3 2 2 1 1 1 0 0 0 0 0 -0 -0 -1 -1 -1 -1 -2 -3 -3
4 3 3 2 1 1 0 -0 -0 -0 -0 -0 -0 -1 -1 -1 -1 -1 -2 -3 -3 -3
4 3 3 2 1 0 -0 -0 -1 -1 -0 -1 -2 -2 -2 -2 -2 -3 -3 -3 -4 -4
4 3 2 1 1 0 -0 -1 -1 -1 -1 -1 -2 -2 -2 -2 -3 -3 -4 -4 -4 -5
3 2 2 1 0 -0 -1 -1 -1 -1 -1 -2 -2 -2 -3 -3 -4 -4 -4 -5 -5 -5
3 2 2 1 0 -0 -0 -1 -1 -1 -1 -2 -3 -4 -4 -4 -4 -5 -5 -5 -6 -6
2 2 1 1 0 0 -0 -1 -1 -1 -1 -2 -3 -4 -4 -4 -5 -6 -6 -6 -7 -7
2 1 1 1 1 0 -0 -0 -1 -1 -2 -2 -4 -4 -4 -5 -5 -6 -7 -7 -8 -8
2 1 1 1 1 0 -0 -0 -1 -1 -2 -3 -3 -4 -5 -5 -6 -7 -8 -8 -8 -9
1 1 1 0 0 -0 -0 -1 -1 -2 -3 -4 -4 -5 -5 -6 -6 -8 -8 -9 -9 -9
0 0 -0 -1 -1 -1 -1 -1 -2 -3 -4 -5 -5 -7 -6 -6 -7 -8 -8 -9 -9 -9
Height
1553 1552 1554 1552 1551 1550 1547 1544 1541 1539 1536 1535 1533 1530 1529 1527 1526 1525 1524 1522 1522 1519
1549 1548 1549 1549 1548 1546 1543 1541 1538 1536 1534 1531 1530 1528 1526 1525 1523 1522 1520 1520 1519 1517
1546 1545 1546 1545 1543 1541 1539 1536 1534 1532 1530 1528 1526 1525 1523 1521 1519 1518 1517 1516 1515 1513
1541 1543 1543 1541 1539 1537 1534 1532 1530 1528 1526 1525 1523 1521 1519 1517 1515 1514 1513 1512 1510 1508
1538 1539 1538 1536 1535 1532 1530 1528 1525 1523 1522 1521 1518 1517 1514 1513 1511 1511 1509 1508 1506 1504
1535 1535 1533 1532 1530 1528 1525 1523 1521 1520 1518 1516 1514 1513 1511 1510 1508 1506 1505 1504 1502 1499
1531 1530 1528 1527 1525 1523 1520 1518 1516 1514 1513 1511 1510 1510 1508 1507 1505 1504 1502 1500 1498 1495
1525 1524 1524 1522 1520 1518 1515 1513 1512 1510 1508 1506 1505 1504 1503 1503 1502 1500 1498 1496 1493 1490
1520 1520 1519 1517 1516 1514 1512 1510 1508 1506 1504 1502 1501 1497 1498 1497 1497 1496 1494 1491 1488 1485
1515 1514 1513 1512 1511 1509 1507 1505 1503 1501 1500 1498 1496 1493 1494 1493 1492 1491 1490 1487 1483 1480
1511 1510 1509 1508 1506 1505 1504 1501 1499 1496 1495 1494 1490 1490 1490 1489 1488 1487 1485 1482 1478 1476
1507 1505 1505 1503 1501 1500 1498 1497 1495 1493 1491 1490 1487 1486 1485 1484 1483 1482 1479 1477 1474 1471
1505 1503 1501 1499 1496 1494 1492 1490 1489 1488 1486 1484 1483 1481 1481 1480 1478 1476 1475 1473 1471 1467
1500 1499 1495 1493 1491 1489 1486 1484 1482 1483 1482 1479 1478 1476 1475 1475 1474 1472 1470 1468 1467 1465
Wind_Speed
1 4 3 7 8 9 11 13 15 15 15 12 11 13 12 15 13 13 14 12 14 14
3 5 5 5 8 9 11 13 13 13 13 12 12 13 14 15 16 17 13 12 15 15
3 1 3 6 9 10 11 12 13 13 12 14 13 17 17 19 17 14 12 15 15 17
5 4 5 6 8 10 12 12 13 13 13 13 16 18 19 19 17 15 14 15 16 18
7 6 7 8 9 11 12 13 13 13 13 15 17 17 16 14 14 16 16 17 18 20
9 8 9 9 10 11 12 13 12 12 14 15 15 14 14 14 15 15 14 15 17 19
11 10 11 11 11 12 13 13 12 12 14 14 13 13 13 14 15 16 19 17 20 22
11 11 12 13 13 13 13 12 12 13 14 12 12 12 13 15 15 14 17 19 20 19
11 12 14 14 14 14 14 13 13 14 15 14 13 16 14 14 15 14 16 19 18 17
11 12 14 14 16 15 15 14 14 14 14 13 14 16 15 15 17 14 17 16 15 15
12 13 15 16 17 17 17 16 15 14 14 12 15 17 19 16 17 14 15 14 13 13
12 14 16 17 17 18 17 17 17 15 13 12 15 20 18 17 18 14 13 12 12 13
13 15 16 17 18 18 18 18 17 15 12 12 14 21 17 16 19 15 12 11 11 14
13 16 17 18 17 18 18 17 14 15 13 11 14 14 17 18 17 14 14 11 10 10
Wind_Direction
356 340 338 341 335 325 324 324 320 319 317 310 289 279 271 285 296 293 297 301 294 299
301 314 327 335 327 323 326 320 315 317 312 292 290 279 301 299 298 290 284 291 298 300
270 277 296 322 327 327 319 317 314 313 306 295 286 292 298 295 293 285 284 297 296 301
201 232 283 311 318 318 315 315 311 307 300 292 289 290 293 291 283 279 284 282 294 305
208 240 281 297 307 309 311 309 306 300 299 299 295 292 292 283 279 284 288 294 301 305
228 254 274 285 294 302 305 305 302 301 301 299 292 291 287 283 281 291 300 298 299 304
237 258 267 274 287 296 300 298 297 296 296 296 294 290 289 291 291 294 292 300 306 304
246 260 268 271 283 287 295 298 296 295 289 282 283 280 282 294 298 299 300 302 303 303
249 263 270 274 282 287 295 298 297 297 295 288 282 265 300 308 300 307 303 304 301 302
261 271 273 278 282 282 289 295 296 297 295 282 280 274 296 295 298 304 305 302 301 303
273 279 281 280 283 283 284 292 293 292 285 283 269 271 286 288 305 303 302 300 300 304
282 284 285 284 286 285 282 288 290 287 281 277 273 273 279 296 306 304 301 300 302 291
293 291 290 290 289 285 279 282 283 274 266 266 254 265 282 296 307 303 302 303 300 306
294 294 291 292 291 285 279 277 272 260 263 260 271 262 281 295 304 302 302 302 303 298